Weather Roundup
Issued by NWS Corpus Christi, TX

Home | Current Version | Previous Version | Text Only | Print | Product List | Glossary On
Versions: 1 2 3 4 5 6 7 8 9 10 11 12 13 14 15 16 17 18 19 20 21 22 23 24 25 26 27 28 29 30 31 32 33 34 35 36 37 38 39 40 41 42 43 44 45 46 47 48 49 50
000
ASUS44 KCRP 071010
HRRCRP

SOUTH TEXAS REGIONAL WEATHER ROUNDUP
NATIONAL WEATHER SERVICE CORPUS CHRISTI TX
400 AM CST WED DEC 07 2016


TXZ229>244-071100-
...CORPUS CHRISTI AREA OBSERVATIONS...

CITY           SKY/WX    TMP DP  RH WIND       PRES   REMARKS
CORPUS CHRISTI PTCLDY    51  50  96 NE7       30.01S
NAS CORPUS CHR PTCLDY    54  54 100 NE13      30.00F
ROCKPORT         N/A    N/A N/A N/A MISG      30.02S
ALICE          CLOUDY    51  48  89 E7        30.01S
ORANGE GROVE   CLOUDY    50  49  96 E8        30.02S
FALFURRIAS     CLOUDY    54  49  84 NE6       30.00F
$$

...VICTORIA AREA OBSERVATIONS...

CITY           SKY/WX    TMP DP  RH WIND       PRES   REMARKS
VICTORIA       PTCLDY    50  45  83 NE12      30.03S
BEEVILLE       FAIR      47  47 100 NE7       30.01S
PLEASANTON     PTCLDY    44  43  96 CALM      30.04R FOG
SAN ANTONIO    CLEAR     45  43  93 N6        30.03R
$$

...LAREDO AREA OBSERVATIONS...

CITY           SKY/WX    TMP DP  RH WIND       PRES   REMARKS
LAREDO         CLOUDY    52  47  83 NE9       30.01F VSB 1/4
COTULLA        PTCLDY    47  44  90 E3        30.04R
DEL RIO        MOCLDY    41  40  96 E7        30.02S
MCALLEN        CLOUDY    62  57  83 NE9       29.98S
HEBBRONVILLE   CLOUDY    51  46  85 E6        30.01S
$$

...OTHER TEXAS OBSERVATIONS...

CITY           SKY/WX    TMP DP  RH WIND       PRES   REMARKS
BROWNSVILLE    CLOUDY    66  66 100 NE7       29.96S
HOUSTON        PTCLDY    48  45  89 CALM      30.05R
COL. STATION   PTCLDY    48  46  93 N6        30.05S
AUSTIN         CLEAR     39  38  96 CALM      30.05S
WACO           CLOUDY    47  44  90 CALM      30.06S
FORT WORTH     PTCLDY    38  32  79 N6        30.05S
WICHITA FALLS  CLOUDY    31  26  82 N5        30.07R
LUBBOCK        CLOUDY    28  25  88 SE6       29.94F
EL PASO        PTCLDY    51  31  46 SW8       29.95S
$$

...MARINE OBSERVATIONS...

STATION/POSITION TIME  SKY/WX   TEMP    WIND        PRES    VSBY  WAVE   SWELL
                                AIR SEA DIR/SP/G                  HT/PER HT/PER
                 (UTC)          (F)     (DEG/KT/KT) (MB)    (MI)  (FT/S) (FT/S)
PORT ARANSAS     1000            55 64   10/ 11/ 13 1015.8F
BUOY 90 E PORT A 0950            67 76   30/ 10/ 12 1015.7R         3/ 5   2/ 5
BUOY 45 SE BAFFI 0950            70 76   60/ 12/ 16 1014.5S         4/ 5   2/ 7
BUOY 200 E PT IS 0950            74 77  120/  6/  6 1015.7R         2/ 7   2/ 7
BUOY 15 E GALVES 0950            57 65   10/ 14/ 16 1016.5S         2/ 5
$$




USA.gov is the U.S. government's official web portal to all federal, state and local government web resources and services.